Regional Weather Roundup
Issued by NWS

Home | Current Version | Previous Version | Graphics & Text | Print | Product List | Glossary On
Versions: 1 2 3 4 5 6 7 8 9 10 11 12 13 14 15 16 17 18 19 20 21 22 23 24 25 26 27 28 29 30 31 32 33 34 35 36 37 38 39 40 41 42 43 44 45 46 47 48 49 50
000
ASUS43 KMKX 240700
RWRWI

WISCONSIN REGIONAL WEATHER ROUNDUP
NATIONAL WEATHER SERVICE MILWAUKEE/SULLIVAN WI
100 AM CST MON NOV 24 2014

NOTE: "FAIR" INDICATES FEW OR NO CLOUDS BELOW 12,000 FEET WITH NO
SIGNIFICANT WEATHER AND/OR OBSTRUCTIONS TO VISIBILITY.

WIZ001-002-006>008-014>016-023>028-240800-
NORTHWEST WISCONSIN

CITY           SKY/WX    TMP DP  RH WIND       PRES   REMARKS
SUPERIOR ARPT  DRIZZLE   36  34  92 NW10      29.27F WCI  28
ASHLAND        MIX PCPN  36  36 100 NW6       29.23F FOG     WCI  31
HAYWARD        LGT RAIN  35  33  92 VRB5      29.22F FOG     WCI  31
SIREN          LGT RAIN  35  34  96 NW8       29.28F WCI  28
CUMBERLAND     RAIN      32  32 100 NW12      29.23F WCI  23
RICE LAKE      LGT RAIN  35  34  98 NW6       29.24F WCI  29
CHETEK         DRIZZLE   35  35 100 NW5       29.21F WCI  31
LADYSMITH      CLOUDY    38  38  98 NW10      29.19F FOG     WCI  31
EAU CLAIRE     CLOUDY    37  35  92 NW13      29.18F FOG     WCI  29
MENOMONIE      DRIZZLE   37  36  99 NW13      29.22F WCI  28
NEW RICHMOND   LGT RAIN  34  34 100 NW17      29.28F WCI  23
OSCEOLA        LGT RAIN  34  34 100 W12       29.31F WCI  25
$$

WIZ003>005-009-010-017-018-240800-
NORTH CENTRAL WISCONSIN

CITY           SKY/WX    TMP DP  RH WIND       PRES   REMARKS
MANITOWISH WTR DRIZZLE   39  39 100 N9        29.14F WCI  33
ARBOR VITAE    LGT RAIN  39  38  97 N5        29.14F VSB 1/2
WOODRUFF       LGT RAIN  39  38  97 N5        29.14F VSB 1/2
RHINELANDER    LGT RAIN  39  39 100 N3        29.11F VSB 3/4
EAGLE RIVER    LGT RAIN  38  38 100 CALM      29.12F VSB 1/2
LAND O LAKES   LGT RAIN  39  39 100 CALM      29.14F VSB 3/4
PHILLIPS       DRIZZLE   39  39 100 NW5       29.14F
TOMAHAWK       DRZL/FOG  37  37  98 CALM      29.13F VSB 1/2
MEDFORD        LGT RAIN  39  39 100 CALM      29.12F VSB 1/2
MERRILL        LGT RAIN  40  40 100 CALM      29.12F VSB 1/2
$$

WIZ029-030-035-036-043>047-240800-
CENTRAL WISCONSIN

CITY           SKY/WX    TMP DP  RH WIND       PRES   REMARKS
WAUSAU         LGT RAIN  41  40  96 NW3       29.09F VSB 1/2
MOSINEE        RAIN      39  39 100 CALM      29.11F VSB 3/4
MARSHFIELD     LGT RAIN  42  41  96 NW5       29.10F VSB 3/4
STEVENS POINT  LGT RAIN  41  41 100 CALM      29.10F VSB 3/4
WAUPACA        DRZL/FOG  44  42  95 NW3       29.10F VSB 3/4
WAUTOMA        FOG       45  45 100 CALM      29.10F VSB 3/4
WISC RAPIDS    LGT RAIN  43  41  93 CALM      29.11F VSB 3/4
CAMP DOUGLAS   MIX PCPN  45  45 100 NW6       29.11F FOG
$$

WIZ011>013-019>022-031-037>040-048>050-240800-
NORTHEAST WISCONSIN

CITY           SKY/WX    TMP DP  RH WIND       PRES   REMARKS
ANTIGO         RAIN      37  37 100 N5        29.10F VSB 1/2 WCI  33
SHAWANO        DRZL/FOG  41  40  95 CALM      29.11F VSB 1/4
OCONTO         CLOUDY    41  41 100 CALM      29.09F VSB 1/2
STURGEON BAY   CLOUDY    45  43  93 N3        29.09F VSB 3/4
GREEN BAY      LGT RAIN  43  42  97 N3        29.08F VSB 1/4
MANITOWOC      LGT RAIN  43  43 100 N5        29.08F VSB 3/4
APPLETON       DRZL/FOG  41  41 100 N5        29.09F VSB 1/2
CLINTONVILLE   LGT RAIN  41  41 100 N3        29.10F VSB 1/2
OSHKOSH        LGT RAIN  42  41  96 CALM      29.08F VSB 1/2
$$

WIZ032>034-041-042-053>061-240800-
SOUTHWEST WISCONSIN

CITY           SKY/WX    TMP DP  RH WIND       PRES   REMARKS
LA CROSSE      LGT RAIN  39  39 100 NW15      29.17F FOG     WCI  31
SPARTA         CLOUDY    40  40 100 NW9       29.16F WCI  34
VIROQUA        CLOUDY    38  38 100 NW13      29.15S WCI  31
BOSCOBEL       CLOUDY    43  41  93 W8        29.14F FOG
PRAIRIE DU CHI CLOUDY    40  39  96 NW14G23   29.17F WCI  32
PLATTEVILLE    CLOUDY    45  44  97 W10       29.13F VSB 1/2
$$

WIZ056-057-062-063-064-067-068-240800-
SOUTH CENTRAL WISCONSIN

CITY           SKY/WX    TMP DP  RH WIND       PRES   REMARKS
REEDSBURG      FOG       44  44 100 W3        29.10F VSB 3/4
BARABOO/DELLS  DRZL/FOG  44  43  97 CALM      29.10F VSB 1/4
LONE ROCK      NOT AVBL
MINERAL POINT  FOG       46  45  93 NW5       29.10F VSB 1/4
MADISON        FOG       45  44  97 NW3       29.08F VSB 1/2
MIDDLETON      CLOUDY    46  46 100 NW3       29.10F VSB 1/2
WATERTOWN      FOG       45  45 100 CALM      29.08F VSB 1
MONROE         FOG       45  45 100 W6        29.09F VSB 1/4
JANESVILLE     FOG       45  45 100 CALM      29.08F VSB 1/2
$$

WIZ051-052-058>065-066-070>072-240800-
SOUTHEAST WISCONSIN

CITY           SKY/WX    TMP DP  RH WIND       PRES   REMARKS
MILWAUKEE      LGT RAIN  46  44  93 W5        29.06F VSB 1/4
WAUKESHA       RAIN      43  43 100 W3        29.08F VSB 3/4
MILWAUKEE/TIMM DRIZZLE   43  43 100 NW3       29.08F
RACINE         LGT RAIN  46  45  96 CALM      29.07F FOG
BURLINGTON     DRZL/FOG  44  44 100 CALM      29.07F VSB 1
KENOSHA        LGT RAIN  46  45  96 W5        29.05F VSB 1
FOND DU LAC    LGT RAIN  44  42  93 NW5       29.08F VSB 1
SHEBOYGAN      LGT RAIN  43  42  97 MISG      29.06F FOG
WEST BEND      RAIN      43  41  93 CALM      29.07F
JUNEAU         DRZL/FOG  43  43  99 CALM      29.09F VSB 1/4
$$

LSZ147-162-240800-
LAKE SUPERIOR

STATION/POSITION TIME  TEMP    WIND        PRES    WAVE
                       AIR SEA DIR/SP/G            HT/PER
                 (UTC) (F)     (DEG/KT/KT) (MB)    (FT/S)
DEVILS ISLAND    0600   39     340/ 12/ 14  990.8F
PORT WING        0600   37     330/ 10/ 11  991.9
SAXON HARBOR     0600   38     310/  5/  7  990.2F
$$

LMZ867-665-643>646-240800-
LAKE MICHIGAN

STATION/POSITION TIME  TEMP    WIND        PRES    WAVE
                       AIR SEA DIR/SP/G            HT/PER
                 (UTC) (F)     (DEG/KT/KT) (MB)    (FT/S)
CHAMBERS ISLAND  0600   41     340/  4/  6  987.1F
N MID LAKE BUOY  0550   44 42   90/ 10/ 12  987.3F   3/ 6
NORTHPORT PIER   0600   42      80/  2/  5  987.1F
SISTER BAY       0613          120/  3/  6   N/A
KEWAUNEE LAKESHO 0600   44     330/  1/  2  985.4F
SHEBOYGAN LAKESH 0600   46 39  340/  3/  3  985.7F
PORT WASHINGTON  0640   45     320/  4/  5  985.4F
MILWAUKEE LAKESH 0500   45     340/  3/  3   N/A
S MID LAKE BUOY  0550   46 42  130/  6/  8  984.9F   1/ 3
KENOSHA   LAKESH 0600   45        CALM      985.1F
$$

TC  - TEMPERATURE IN CELSIUS
VSB - VISIBILITY IN STATUTE MILES
WCI - WIND CHILL INDEX
HX  - HEAT INDEX



USA.gov is the U.S. government's official web portal to all federal, state and local government web resources and services.